| time (UTC) | temp F | wind direction | speed knots | gust knots | rain 1hr in | rain 24hr in | rain mn in | humidity % | barometer mb |
| 20260507073905 | 58 | 282 | 0.0 | 0.0 | 0.00 | 0.00 | 0.00 | 79 | 1016.2 |
| 20260507073412 | 58 | 282 | 0.0 | 0.0 | 0.00 | 0.00 | 0.00 | 78 | 1016.2 |
| 20260507072233 | 59 | 282 | 0.0 | 0.0 | 0.00 | 0.00 | 0.00 | 77 | 1016.3 |
| 20260507071719 | 59 | 282 | 0.0 | 0.0 | 0.00 | 0.00 | 0.00 | 77 | 1016.3 |
| 20260507071210 | 59 | 282 | 0.0 | 0.0 | 0.00 | 0.00 | 0.00 | 77 | 1016.3 |
| 20260507070048 | 59 | 282 | 0.0 | 0.0 | 0.00 | 0.00 | 0.00 | 76 | 1016.4 |
| 20260507064936 | 60 | 282 | 0.0 | 0.9 | 0.00 | 0.00 | 0.00 | 76 | 1016.5 |
| 20260507064433 | 60 | 282 | 0.0 | 0.0 | 0.00 | 0.00 | 0.00 | 76 | 1016.5 |
| 20260507062710 | 60 | 282 | 0.0 | 0.9 | 0.00 | 0.00 | 0.00 | 75 | 1016.5 |
| 20260507062208 | 60 | 282 | 0.0 | 0.0 | 0.00 | 0.00 | 0.00 | 75 | 1016.5 |
| 20260507061710 | 60 | 282 | 0.0 | 0.0 | 0.00 | 0.00 | 0.00 | 74 | 1016.5 |
| 20260507061159 | 60 | 282 | 0.0 | 0.0 | 0.00 | 0.00 | 0.00 | 74 | 1016.4 |
| 20260507060650 | 60 | 282 | 0.0 | 2.6 | 0.00 | 0.00 | 0.00 | 73 | 1016.5 |
| 20260507060145 | 61 | 275 | 0.0 | 2.6 | 0.00 | 0.00 | 0.00 | 73 | 1016.5 |
| 20260507055639 | 61 | 260 | 0.9 | 2.6 | 0.00 | 0.00 | 0.00 | 73 | 1016.5 |
| 20260507055127 | 61 | 262 | 0.9 | 2.6 | 0.00 | 0.00 | 0.00 | 72 | 1016.5 |
| 20260507054621 | 61 | 268 | 0.0 | 1.7 | 0.00 | 0.00 | 0.00 | 72 | 1016.5 |
| 20260507053452 | 61 | 274 | 0.0 | 1.7 | 0.00 | 0.00 | 0.00 | 71 | 1016.5 |
| 20260507052948 | 61 | 273 | 0.0 | 1.7 | 0.00 | 0.00 | 0.00 | 71 | 1016.5 |
| 20260507051834 | 62 | 297 | 0.9 | 3.5 | 0.00 | 0.00 | 0.00 | 71 | 1016.3 |
| 20260507051334 | 62 | 302 | 1.7 | 3.5 | 0.00 | 0.00 | 0.00 | 70 | 1016.3 |
| 20260507050822 | 62 | 288 | 1.7 | 3.5 | 0.00 | 0.00 | 0.00 | 70 | 1016.3 |
| 20260507050310 | 62 | 293 | 1.7 | 3.5 | 0.00 | 0.00 | 0.00 | 70 | 1016.3 |
| 20260507045156 | 62 | 298 | 0.9 | 2.6 | 0.00 | 0.00 | 0.00 | 69 | 1016.2 |
| 20260507044644 | 62 | 283 | 1.7 | 3.5 | 0.00 | 0.00 | 0.00 | 69 | 1016.2 |
| 20260507044139 | 63 | 269 | 1.7 | 3.5 | 0.00 | 0.00 | 0.00 | 68 | 1016.3 |
| 20260507043622 | 63 | 299 | 1.7 | 3.5 | 0.00 | 0.00 | 0.00 | 68 | 1016.2 |
| 20260507043126 | 63 | 276 | 1.7 | 3.5 | 0.00 | 0.00 | 0.00 | 68 | 1016.2 |
| 20260507042621 | 63 | 285 | 1.7 | 4.3 | 0.00 | 0.00 | 0.00 | 68 | 1016.2 |
| 20260507042118 | 63 | 304 | 1.7 | 4.3 | 0.00 | 0.00 | 0.00 | 68 | 1016.2 |
| 20260507041623 | 63 | 284 | 1.7 | 5.2 | 0.00 | 0.00 | 0.00 | 68 | 1016.2 |
| 20260507041132 | 63 | 304 | 1.7 | 5.2 | 0.00 | 0.00 | 0.00 | 67 | 1016.2 |
| 20260507040622 | 64 | 266 | 1.7 | 5.2 | 0.00 | 0.00 | 0.00 | 67 | 1016.1 |
| 20260507040114 | 64 | 290 | 2.6 | 5.2 | 0.00 | 0.00 | 0.00 | 67 | 1016.0 |
| 20260507035621 | 64 | 298 | 2.6 | 5.2 | 0.00 | 0.00 | 0.00 | 67 | 1016.0 |
| 20260507035108 | 64 | 266 | 1.7 | 6.1 | 0.00 | 0.00 | 0.00 | 66 | 1015.9 |
| 20260507034606 | 64 | 252 | 0.9 | 6.1 | 0.00 | 0.00 | 0.00 | 66 | 1015.8 |
| 20260507034104 | 64 | 259 | 1.7 | 6.1 | 0.00 | 0.00 | 0.00 | 66 | 1015.8 |
| 20260507033613 | 65 | 297 | 2.6 | 6.1 | 0.00 | 0.00 | 0.00 | 66 | 1015.7 |
| 20260507033113 | 65 | 227 | 2.6 | 5.2 | 0.00 | 0.00 | 0.00 | 65 | 1015.6 |
| 20260507032601 | 65 | 296 | 2.6 | 5.2 | 0.00 | 0.00 | 0.00 | 65 | 1015.6 |
| 20260507032058 | 65 | 283 | 2.6 | 7.0 | 0.00 | 0.00 | 0.00 | 65 | 1015.6 |
| 20260507031558 | 66 | 273 | 3.5 | 7.0 | 0.00 | 0.00 | 0.00 | 65 | 1015.6 |
| 20260507031039 | 66 | 275 | 3.5 | 7.0 | 0.00 | 0.00 | 0.00 | 64 | 1015.5 |
| 20260507030535 | 66 | 283 | 3.5 | 7.0 | 0.00 | 0.00 | 0.00 | 64 | 1015.5 |
| 20260507025415 | 67 | 288 | 3.5 | 7.0 | 0.00 | 0.00 | 0.00 | 63 | 1015.4 |
| 20260507024911 | 67 | 264 | 3.5 | 7.0 | 0.00 | 0.00 | 0.00 | 63 | 1015.3 |
| 20260507023735 | 68 | 260 | 3.5 | 7.8 | 0.00 | 0.00 | 0.00 | 62 | 1015.2 |
| 20260507023237 | 68 | 278 | 4.3 | 7.8 | 0.00 | 0.00 | 0.00 | 61 | 1015.0 |
| 20260507022746 | 69 | 260 | 3.5 | 7.0 | 0.00 | 0.00 | 0.00 | 60 | 1015.0 |
| 20260507022251 | 70 | 302 | 1.7 | 6.1 | 0.00 | 0.00 | 0.00 | 60 | 1014.9 |
| 20260507021146 | 70 | 248 | 3.5 | 6.1 | 0.00 | 0.00 | 0.00 | 59 | 1014.8 |
| 20260507020653 | 71 | 290 | 2.6 | 6.1 | 0.00 | 0.00 | 0.00 | 58 | 1014.8 |
| 20260507020143 | 71 | 266 | 3.5 | 6.1 | 0.00 | 0.00 | 0.00 | 58 | 1014.7 |
| 20260507015643 | 71 | 290 | 3.5 | 8.7 | 0.00 | 0.00 | 0.00 | 57 | 1014.7 |
| 20260507015135 | 71 | 294 | 4.3 | 8.7 | 0.00 | 0.00 | 0.00 | 57 | 1014.6 |
| 20260507014631 | 71 | 301 | 3.5 | 8.7 | 0.00 | 0.00 | 0.00 | 56 | 1014.7 |
| 20260507014125 | 72 | 285 | 3.5 | 8.7 | 0.00 | 0.00 | 0.00 | 56 | 1014.6 |
| 20260507013628 | 72 | 290 | 4.3 | 7.8 | 0.00 | 0.00 | 0.00 | 55 | 1014.6 |
| 20260507013124 | 72 | 250 | 4.3 | 8.7 | 0.00 | 0.00 | 0.00 | 55 | 1014.5 |
| 20260507012617 | 72 | 297 | 3.5 | 8.7 | 0.00 | 0.00 | 0.00 | 55 | 1014.5 |
| 20260507012116 | 73 | 278 | 3.5 | 9.6 | 0.00 | 0.00 | 0.00 | 54 | 1014.5 |
| 20260507010952 | 73 | 247 | 5.2 | 11.3 | 0.00 | 0.00 | 0.00 | 54 | 1014.3 |
| 20260507005838 | 73 | 191 | 5.2 | 11.3 | 0.00 | 0.00 | 0.00 | 53 | 1014.3 |
| 20260507005336 | 74 | 295 | 4.3 | 11.3 | 0.00 | 0.00 | 0.00 | 52 | 1014.3 |
| 20260507004156 | 73 | 244 | 6.1 | 11.3 | 0.00 | 0.00 | 0.00 | 52 | 1014.2 |
| 20260507003636 | 74 | 258 | 5.2 | 11.3 | 0.00 | 0.00 | 0.00 | 51 | 1014.3 |
| 20260507003119 | 74 | 227 | 5.2 | 11.3 | 0.00 | 0.00 | 0.00 | 50 | 1014.2 |
| 20260507002619 | 74 | 239 | 5.2 | 11.3 | 0.00 | 0.00 | 0.00 | 51 | 1014.2 |
| 20260507001504 | 75 | 273 | 5.2 | 11.3 | 0.00 | 0.00 | 0.00 | 50 | 1014.1 |
| 20260507000340 | 74 | 231 | 6.1 | 13.9 | 0.00 | 0.00 | 0.00 | 50 | 1014.0 |
| 20260506235845 | 75 | 281 | 6.1 | 13.9 | 0.00 | 0.00 | 0.00 | 49 | 1014.1 |
| 20260506235329 | 75 | 257 | 6.1 | 13.9 | 0.00 | 0.00 | 0.00 | 50 | 1014.2 |
| 20260506234819 | 75 | 282 | 6.1 | 13.9 | 0.00 | 0.00 | 0.00 | 49 | 1014.0 |
| 20260506234310 | 76 | 256 | 5.2 | 13.0 | 0.00 | 0.00 | 0.00 | 49 | 1014.0 |
| 20260506233818 | 76 | 238 | 5.2 | 12.2 | 0.00 | 0.00 | 0.00 | 48 | 1014.0 |
| 20260506233326 | 75 | 262 | 5.2 | 12.2 | 0.00 | 0.00 | 0.00 | 49 | 1014.1 |
| 20260506232155 | 76 | 256 | 4.3 | 10.4 | 0.00 | 0.00 | 0.00 | 47 | 1014.2 |
| 20260506230411 | 76 | 293 | 5.2 | 11.3 | 0.00 | 0.00 | 0.00 | 46 | 1014.3 |
| 20260506225919 | 76 | 236 | 5.2 | 11.3 | 0.00 | 0.00 | 0.00 | 46 | 1014.3 |
| 20260506225429 | 76 | 249 | 4.3 | 11.3 | 0.00 | 0.00 | 0.00 | 45 | 1014.3 |
| 20260506224914 | 76 | 269 | 3.5 | 10.4 | 0.00 | 0.00 | 0.00 | 46 | 1014.4 |
| 20260506223059 | 75 | 290 | 3.5 | 9.6 | 0.00 | 0.00 | 0.00 | 46 | 1014.6 |
| 20260506222546 | 75 | 300 | 4.3 | 9.6 | 0.00 | 0.00 | 0.00 | 46 | 1014.7 |
| 20260506222048 | 75 | 298 | 4.3 | 8.7 | 0.00 | 0.00 | 0.00 | 45 | 1014.7 |
| 20260506221535 | 75 | 339 | 4.3 | 11.3 | 0.00 | 0.00 | 0.00 | 46 | 1014.7 |
| 20260506221043 | 75 | 296 | 4.3 | 11.3 | 0.00 | 0.00 | 0.00 | 46 | 1014.9 |
| 20260506215306 | 75 | 238 | 3.5 | 9.6 | 0.00 | 0.00 | 0.00 | 45 | 1015.1 |
| 20260506214140 | 75 | 3 | 2.6 | 7.0 | 0.00 | 0.00 | 0.00 | 45 | 1015.3 |
| 20260506213637 | 74 | 248 | 3.5 | 8.7 | 0.00 | 0.00 | 0.00 | 46 | 1015.3 |
| 20260506213134 | 74 | 290 | 2.6 | 8.7 | 0.00 | 0.00 | 0.00 | 47 | 1015.4 |
| 20260506212634 | 74 | 264 | 3.5 | 8.7 | 0.00 | 0.00 | 0.00 | 48 | 1015.4 |
| 20260506212117 | 74 | 297 | 4.3 | 8.7 | 0.00 | 0.00 | 0.00 | 48 | 1015.5 |
| 20260506211602 | 73 | 330 | 2.6 | 8.7 | 0.00 | 0.00 | 0.00 | 48 | 1015.6 |
| 20260506211055 | 73 | 307 | 3.5 | 8.7 | 0.00 | 0.00 | 0.00 | 48 | 1015.6 |
| 20260506205306 | 73 | 292 | 4.3 | 10.4 | 0.00 | 0.00 | 0.00 | 48 | 1015.9 |
| 20260506204807 | 73 | 307 | 4.3 | 10.4 | 0.00 | 0.00 | 0.00 | 49 | 1015.9 |
| 20260506204255 | 73 | 281 | 3.5 | 10.4 | 0.00 | 0.00 | 0.00 | 48 | 1016.1 |
| 20260506203739 | 74 | 308 | 2.6 | 6.1 | 0.00 | 0.00 | 0.00 | 47 | 1016.1 |
| 20260506203245 | 74 | 277 | 2.6 | 6.1 | 0.00 | 0.00 | 0.00 | 47 | 1016.1 |
| 20260506202104 | 73 | 172 | 4.3 | 7.8 | 0.00 | 0.00 | 0.00 | 46 | 1016.3 |
| 20260506201601 | 73 | 195 | 3.5 | 7.8 | 0.00 | 0.00 | 0.00 | 46 | 1016.3 |
| 20260506201108 | 74 | 182 | 1.7 | 7.0 | 0.00 | 0.00 | 0.00 | 47 | 1016.4 |
| 20260506200604 | 74 | 293 | 1.7 | 7.0 | 0.00 | 0.00 | 0.00 | 45 | 1016.4 |
| 20260506195447 | 72 | 155 | 1.7 | 7.0 | 0.00 | 0.00 | 0.00 | 47 | 1016.6 |
| 20260506194951 | 72 | 304 | 2.6 | 7.0 | 0.00 | 0.00 | 0.00 | 49 | 1016.6 |
| 20260506194432 | 71 | 251 | 1.7 | 5.2 | 0.00 | 0.00 | 0.00 | 49 | 1016.6 |
| 20260506193918 | 71 | 306 | 1.7 | 5.2 | 0.00 | 0.00 | 0.00 | 49 | 1016.7 |
| 20260506193401 | 71 | 288 | 0.9 | 4.3 | 0.00 | 0.00 | 0.00 | 49 | 1016.8 |
| 20260506192851 | 70 | 160 | 1.7 | 6.1 | 0.00 | 0.00 | 0.00 | 50 | 1016.8 |
| 20260506192353 | 70 | 221 | 2.6 | 6.1 | 0.00 | 0.00 | 0.00 | 50 | 1016.9 |
| 20260506191841 | 70 | 214 | 2.6 | 6.1 | 0.00 | 0.00 | 0.00 | 51 | 1017.0 |
| 20260506191335 | 69 | 290 | 2.6 | 6.1 | 0.00 | 0.00 | 0.00 | 52 | 1017.1 |
| 20260506190816 | 69 | 202 | 2.6 | 5.2 | 0.00 | 0.00 | 0.00 | 51 | 1017.1 |
| 20260506190307 | 69 | 298 | 1.7 | 5.2 | 0.00 | 0.00 | 0.00 | 51 | 1017.3 |
| 20260506185814 | 70 | 262 | 0.9 | 6.1 | 0.00 | 0.00 | 0.00 | 50 | 1017.3 |
| 20260506185314 | 69 | 247 | 1.7 | 6.1 | 0.00 | 0.00 | 0.00 | 51 | 1017.4 |
| 20260506184802 | 67 | 129 | 2.6 | 6.1 | 0.00 | 0.00 | 0.00 | 54 | 1017.4 |
| 20260506184242 | 67 | 4 | 2.6 | 6.1 | 0.00 | 0.00 | 0.00 | 53 | 1017.5 |
| 20260506183723 | 68 | 37 | 1.7 | 5.2 | 0.00 | 0.00 | 0.00 | 50 | 1017.6 |
| 20260506182611 | 68 | 235 | 1.7 | 7.8 | 0.00 | 0.00 | 0.00 | 51 | 1017.7 |
| 20260506182053 | 68 | 252 | 1.7 | 7.8 | 0.00 | 0.00 | 0.00 | 52 | 1017.6 |
| 20260506181558 | 67 | 183 | 1.7 | 7.8 | 0.00 | 0.00 | 0.00 | 53 | 1017.6 |
| 20260506180413 | 66 | 289 | 0.9 | 5.2 | 0.00 | 0.00 | 0.00 | 55 | 1017.7 |
| 20260506175300 | 66 | 126 | 2.6 | 5.2 | 0.00 | 0.00 | 0.00 | 56 | 1017.8 |
| 20260506174803 | 66 | 131 | 1.7 | 5.2 | 0.00 | 0.00 | 0.00 | 55 | 1017.7 |
| 20260506173639 | 65 | 157 | 1.7 | 5.2 | 0.00 | 0.00 | 0.00 | 56 | 1017.7 |
| 20260506173121 | 65 | 147 | 1.7 | 5.2 | 0.00 | 0.00 | 0.00 | 56 | 1017.7 |
| 20260506171941 | 65 | 113 | 0.9 | 4.3 | 0.00 | 0.00 | 0.00 | 57 | 1017.8 |
| 20260506171431 | 64 | 330 | 0.9 | 4.3 | 0.00 | 0.00 | 0.00 | 58 | 1017.8 |
| 20260506170937 | 64 | 184 | 1.7 | 4.3 | 0.00 | 0.00 | 0.00 | 57 | 1017.8 |
| 20260506170429 | 64 | 219 | 0.9 | 4.3 | 0.00 | 0.00 | 0.00 | 59 | 1017.8 |
| 20260506165918 | 64 | 318 | 1.7 | 5.2 | 0.00 | 0.00 | 0.00 | 59 | 1017.8 |
| 20260506165411 | 63 | 146 | 1.7 | 5.2 | 0.00 | 0.00 | 0.00 | 60 | 1017.8 |
| 20260506164919 | 63 | 183 | 1.7 | 5.2 | 0.00 | 0.00 | 0.00 | 59 | 1017.8 |
| 20260506163211 | 63 | 214 | 0.0 | 4.3 | 0.00 | 0.00 | 0.00 | 63 | 1017.8 |
| 20260506162703 | 62 | 143 | 0.0 | 1.7 | 0.00 | 0.00 | 0.00 | 63 | 1017.9 |
| 20260506162204 | 62 | 82 | 0.9 | 4.3 | 0.00 | 0.00 | 0.00 | 62 | 1017.8 |
| 20260506161656 | 62 | 179 | 0.0 | 4.3 | 0.00 | 0.00 | 0.00 | 66 | 1017.8 |
| 20260506160508 | 61 | 217 | 0.9 | 4.3 | 0.00 | 0.00 | 0.00 | 66 | 1017.9 |
| 20260506160001 | 61 | 200 | 0.0 | 1.7 | 0.00 | 0.00 | 0.00 | 68 | 1017.9 |
| 20260506155451 | 61 | 158 | 0.9 | 3.5 | 0.00 | 0.00 | 0.00 | 68 | 1017.9 |
| 20260506154341 | 60 | 214 | 0.0 | 3.5 | 0.00 | 0.00 | 0.00 | 70 | 1017.8 |
| 20260506153845 | 60 | 136 | 0.0 | 2.6 | 0.00 | 0.00 | 0.00 | 72 | 1017.8 |
| 20260506153340 | 59 | 241 | 0.0 | 1.7 | 0.00 | 0.00 | 0.00 | 71 | 1017.9 |
| 20260506152840 | 59 | 240 | 0.0 | 0.0 | 0.00 | 0.00 | 0.00 | 71 | 1017.9 |
| 20260506152330 | 59 | 252 | 0.0 | 0.0 | 0.00 | 0.00 | 0.00 | 72 | 1017.9 |
| 20260506151830 | 59 | 188 | 0.0 | 0.9 | 0.00 | 0.00 | 0.00 | 73 | 1018.0 |
| 20260506151329 | 59 | 226 | 0.0 | 0.0 | 0.00 | 0.00 | 0.00 | 73 | 1017.9 |
| 20260506150822 | 59 | 165 | 0.0 | 1.7 | 0.00 | 0.00 | 0.00 | 74 | 1017.9 |
| 20260506150325 | 59 | 146 | 0.0 | 1.7 | 0.00 | 0.00 | 0.00 | 74 | 1017.9 |
| 20260506145819 | 58 | 153 | 0.0 | 0.0 | 0.00 | 0.00 | 0.00 | 75 | 1017.9 |
| 20260506145317 | 58 | 120 | 0.0 | 1.7 | 0.00 | 0.00 | 0.00 | 76 | 1017.9 |
| 20260506144154 | 57 | 71 | 0.0 | 0.0 | 0.00 | 0.00 | 0.00 | 77 | 1017.9 |
| 20260506143642 | 57 | 86 | 0.0 | 0.0 | 0.00 | 0.00 | 0.00 | 77 | 1017.8 |
| 20260506143141 | 57 | 233 | 0.0 | 0.0 | 0.00 | 0.00 | 0.00 | 80 | 1017.8 |
| 20260506142648 | 56 | 233 | 0.0 | 0.0 | 0.00 | 0.00 | 0.00 | 83 | 1017.7 |
| 20260506140905 | 54 | 233 | 0.0 | 0.0 | 0.00 | 0.00 | 0.00 | 84 | 1017.7 |
| 20260506140348 | 53 | 233 | 0.0 | 0.0 | 0.00 | 0.00 | 0.00 | 86 | 1017.7 |
| 20260506135854 | 52 | 233 | 0.0 | 0.0 | 0.00 | 0.00 | 0.00 | 86 | 1017.7 |
| 20260506135345 | 51 | 233 | 0.0 | 0.0 | 0.00 | 0.00 | 0.00 | 86 | 1017.7 |
| 20260506134216 | 50 | 234 | 0.0 | 0.0 | 0.00 | 0.00 | 0.00 | 88 | 1017.6 |
| 20260506133713 | 50 | 233 | 0.0 | 0.0 | 0.00 | 0.00 | 0.00 | 88 | 1017.6 |
| 20260506132551 | 49 | 233 | 0.0 | 0.0 | 0.00 | 0.00 | 0.00 | 89 | 1017.4 |
| 20260506132039 | 49 | 233 | 0.0 | 0.0 | 0.00 | 0.00 | 0.00 | 89 | 1017.3 |
| 20260506131527 | 48 | 233 | 0.0 | 0.0 | 0.00 | 0.00 | 0.00 | 89 | 1017.3 |
| 20260506131015 | 48 | 233 | 0.0 | 0.0 | 0.00 | 0.00 | 0.00 | 89 | 1017.3 |
| 20260506130512 | 48 | 233 | 0.0 | 0.0 | 0.00 | 0.00 | 0.00 | 90 | 1017.2 |
| 20260506125955 | 48 | 233 | 0.0 | 0.0 | 0.00 | 0.00 | 0.00 | 90 | 1017.1 |
| 20260506125504 | 48 | 234 | 0.0 | 0.0 | 0.00 | 0.00 | 0.00 | 90 | 1017.1 |
| 20260506124951 | 48 | 233 | 0.0 | 0.0 | 0.00 | 0.00 | 0.00 | 90 | 1017.2 |
| 20260506124444 | 48 | 234 | 0.0 | 0.0 | 0.00 | 0.00 | 0.00 | 90 | 1017.1 |
| 20260506123936 | 48 | 233 | 0.0 | 0.0 | 0.00 | 0.00 | 0.00 | 90 | 1017.0 |
| 20260506123436 | 49 | 233 | 0.0 | 0.0 | 0.00 | 0.00 | 0.00 | 90 | 1017.0 |
| 20260506122943 | 49 | 234 | 0.0 | 0.0 | 0.00 | 0.00 | 0.00 | 90 | 1016.9 |
| 20260506122425 | 49 | 234 | 0.0 | 0.0 | 0.00 | 0.00 | 0.00 | 90 | 1016.9 |
| 20260506121920 | 49 | 233 | 0.0 | 0.0 | 0.00 | 0.00 | 0.00 | 90 | 1017.0 |
| 20260506121414 | 49 | 233 | 0.0 | 0.0 | 0.00 | 0.00 | 0.00 | 90 | 1016.9 |
| 20260506120236 | 49 | 234 | 0.0 | 0.0 | 0.00 | 0.00 | 0.00 | 90 | 1016.8 |
| 20260506115737 | 49 | 234 | 0.0 | 0.0 | 0.00 | 0.00 | 0.00 | 90 | 1016.8 |
| 20260506115220 | 49 | 233 | 0.0 | 0.0 | 0.00 | 0.00 | 0.00 | 90 | 1016.7 |
| 20260506114728 | 49 | 233 | 0.0 | 0.0 | 0.00 | 0.00 | 0.00 | 90 | 1016.8 |
| 20260506114211 | 49 | 234 | 0.0 | 0.0 | 0.00 | 0.00 | 0.00 | 90 | 1016.8 |
| 20260506113655 | 49 | 233 | 0.0 | 0.0 | 0.00 | 0.00 | 0.00 | 89 | 1016.7 |
| 20260506113135 | 49 | 234 | 0.0 | 0.0 | 0.00 | 0.00 | 0.00 | 89 | 1016.8 |
| 20260506112621 | 49 | 233 | 0.0 | 0.0 | 0.00 | 0.00 | 0.00 | 89 | 1016.7 |
| 20260506112128 | 49 | 233 | 0.0 | 0.0 | 0.00 | 0.00 | 0.00 | 89 | 1016.7 |
| 20260506111617 | 49 | 233 | 0.0 | 0.0 | 0.00 | 0.00 | 0.00 | 89 | 1016.7 |
| 20260506110437 | 49 | 233 | 0.0 | 0.0 | 0.00 | 0.00 | 0.00 | 88 | 1016.7 |
| 20260506105923 | 49 | 233 | 0.0 | 0.0 | 0.00 | 0.00 | 0.00 | 87 | 1016.6 |
| 20260506105422 | 49 | 233 | 0.0 | 0.0 | 0.00 | 0.00 | 0.00 | 87 | 1016.7 |
| 20260506104913 | 49 | 233 | 0.0 | 0.0 | 0.00 | 0.00 | 0.00 | 88 | 1016.7 |
| 20260506104417 | 49 | 234 | 0.0 | 0.0 | 0.00 | 0.00 | 0.00 | 88 | 1016.6 |
| 20260506103302 | 50 | 234 | 0.0 | 0.0 | 0.00 | 0.00 | 0.00 | 87 | 1016.7 |
| 20260506102757 | 50 | 233 | 0.0 | 0.0 | 0.00 | 0.00 | 0.00 | 87 | 1016.7 |
| 20260506102238 | 50 | 233 | 0.0 | 0.0 | 0.00 | 0.00 | 0.00 | 87 | 1016.8 |
| 20260506101735 | 50 | 233 | 0.0 | 0.0 | 0.00 | 0.00 | 0.00 | 87 | 1016.7 |
| 20260506100605 | 50 | 234 | 0.0 | 0.0 | 0.00 | 0.00 | 0.00 | 87 | 1016.7 |
| 20260506100115 | 50 | 233 | 0.0 | 0.0 | 0.00 | 0.00 | 0.00 | 87 | 1016.7 |
| 20260506095611 | 50 | 233 | 0.0 | 0.0 | 0.00 | 0.00 | 0.00 | 87 | 1016.7 |
| 20260506095059 | 50 | 234 | 0.0 | 0.0 | 0.00 | 0.00 | 0.00 | 87 | 1016.7 |
| 20260506094553 | 50 | 233 | 0.0 | 0.0 | 0.00 | 0.00 | 0.00 | 86 | 1016.6 |
| 20260506094100 | 50 | 233 | 0.0 | 0.0 | 0.00 | 0.00 | 0.00 | 86 | 1016.6 |
| 20260506093606 | 50 | 233 | 0.0 | 0.0 | 0.00 | 0.00 | 0.00 | 86 | 1016.6 |
| 20260506093052 | 50 | 233 | 0.0 | 0.0 | 0.00 | 0.00 | 0.00 | 86 | 1016.6 |
| 20260506092559 | 50 | 233 | 0.0 | 0.0 | 0.00 | 0.00 | 0.00 | 86 | 1016.6 |
| 20260506092040 | 51 | 233 | 0.0 | 0.0 | 0.00 | 0.00 | 0.00 | 86 | 1016.8 |
| 20260506091531 | 51 | 233 | 0.0 | 0.0 | 0.00 | 0.00 | 0.00 | 86 | 1016.8 |
| 20260506091027 | 51 | 233 | 0.0 | 0.0 | 0.00 | 0.00 | 0.00 | 86 | 1016.8 |
| 20260506090531 | 51 | 234 | 0.0 | 0.0 | 0.00 | 0.00 | 0.00 | 86 | 1016.8 |
| 20260506090023 | 51 | 234 | 0.0 | 0.0 | 0.00 | 0.00 | 0.00 | 86 | 1016.8 |
| 20260506085513 | 51 | 233 | 0.0 | 0.0 | 0.00 | 0.00 | 0.00 | 86 | 1016.8 |
| 20260506084342 | 51 | 233 | 0.0 | 0.0 | 0.00 | 0.00 | 0.00 | 85 | 1016.9 |
| 20260506083830 | 51 | 233 | 0.0 | 0.0 | 0.00 | 0.00 | 0.00 | 85 | 1016.9 |
| 20260506083318 | 51 | 233 | 0.0 | 0.0 | 0.00 | 0.01 | 0.00 | 85 | 1017.0 |
| 20260506082827 | 52 | 233 | 0.0 | 0.0 | 0.00 | 0.01 | 0.00 | 85 | 1017.0 |
| 20260506082309 | 52 | 233 | 0.0 | 0.0 | 0.00 | 0.01 | 0.00 | 85 | 1017.0 |
| 20260506081819 | 52 | 234 | 0.0 | 0.0 | 0.00 | 0.01 | 0.00 | 84 | 1017.1 |
| 20260506081316 | 52 | 233 | 0.0 | 0.0 | 0.00 | 0.01 | 0.00 | 84 | 1017.1 |
| 20260506080807 | 52 | 233 | 0.0 | 0.0 | 0.00 | 0.01 | 0.00 | 84 | 1017.0 |
| 20260506080250 | 52 | 233 | 0.0 | 0.0 | 0.00 | 0.01 | 0.00 | 84 | 1017.0 |